| time (UTC) | temp F | wind direction | speed MPH | gust MPH | rain 1hr in | rain 24hr in | rain mn in | humidity % | barometer mb |
| 20260504002804 | 52 | 346 | 6.0 | 14.0 | 0.00 | 0.00 | 0.00 | 46 | 1019.7 |
| 20260504001804 | 52 | 13 | 6.0 | 12.0 | 0.00 | 0.00 | 0.00 | 46 | 1019.6 |
| 20260504000804 | 52 | 9 | 5.0 | 10.0 | 0.00 | 0.00 | 0.00 | 47 | 1019.7 |
| 20260503235804 | 52 | 309 | 4.0 | 12.0 | 0.00 | 0.00 | 0.00 | 47 | 1019.7 |
| 20260503234803 | 52 | 344 | 5.0 | 16.0 | 0.00 | 0.00 | 0.00 | 47 | 1019.6 |
| 20260503233804 | 52 | 21 | 6.0 | 12.0 | 0.00 | 0.00 | 0.00 | 46 | 1019.5 |
| 20260503232804 | 52 | 340 | 4.0 | 10.0 | 0.00 | 0.00 | 0.00 | 46 | 1019.5 |
| 20260503230804 | 53 | 343 | 8.0 | 12.0 | 0.00 | 0.00 | 0.00 | 45 | 1019.5 |
| 20260503225804 | 53 | 346 | 9.0 | 14.0 | 0.00 | 0.00 | 0.00 | 45 | 1019.5 |
| 20260503224803 | 53 | 10 | 6.0 | 13.0 | 0.00 | 0.00 | 0.00 | 46 | 1019.4 |
| 20260503222804 | 53 | 0 | 6.0 | 13.0 | 0.00 | 0.00 | 0.00 | 46 | 1019.3 |
| 20260503220803 | 52 | 282 | 3.0 | 6.0 | 0.00 | 0.00 | 0.00 | 48 | 1019.4 |
| 20260503215804 | 53 | 355 | 6.0 | 14.0 | 0.00 | 0.00 | 0.00 | 46 | 1019.5 |
| 20260503214804 | 53 | 350 | 6.0 | 12.0 | 0.00 | 0.00 | 0.00 | 46 | 1019.4 |
| 20260503212804 | 53 | 357 | 7.0 | 13.0 | 0.00 | 0.00 | 0.00 | 46 | 1019.3 |
| 20260503211803 | 53 | 20 | 6.0 | 16.0 | 0.00 | 0.00 | 0.00 | 45 | 1019.3 |
| 20260503205804 | 53 | 38 | 3.0 | 9.0 | 0.00 | 0.00 | 0.00 | 45 | 1019.4 |
| 20260503204804 | 53 | 306 | 5.0 | 9.0 | 0.00 | 0.00 | 0.00 | 46 | 1019.3 |
| 20260503203803 | 53 | 30 | 6.0 | 13.0 | 0.00 | 0.00 | 0.00 | 45 | 1019.4 |
| 20260503202803 | 53 | 350 | 6.0 | 13.0 | 0.00 | 0.00 | 0.00 | 45 | 1019.5 |
| 20260503201804 | 54 | 0 | 6.0 | 13.0 | 0.00 | 0.00 | 0.00 | 44 | 1019.6 |
| 20260503195804 | 55 | 334 | 5.0 | 14.0 | 0.00 | 0.00 | 0.00 | 42 | 1019.5 |
| 20260503193804 | 55 | 45 | 3.0 | 12.0 | 0.00 | 0.00 | 0.00 | 40 | 1019.6 |
| 20260503192803 | 55 | 33 | 5.0 | 13.0 | 0.00 | 0.00 | 0.00 | 40 | 1019.6 |
| 20260503191804 | 55 | 3 | 5.0 | 13.0 | 0.00 | 0.00 | 0.00 | 42 | 1019.6 |
| 20260503190804 | 55 | 0 | 6.0 | 15.0 | 0.00 | 0.00 | 0.00 | 42 | 1019.6 |
| 20260503185804 | 55 | 28 | 6.0 | 14.0 | 0.00 | 0.00 | 0.00 | 41 | 1019.6 |
| 20260503184804 | 56 | 25 | 6.0 | 13.0 | 0.00 | 0.00 | 0.00 | 41 | 1019.4 |
| 20260503183803 | 56 | 8 | 6.0 | 15.0 | 0.00 | 0.00 | 0.00 | 40 | 1019.3 |
| 20260503182804 | 56 | 13 | 8.0 | 15.0 | 0.00 | 0.00 | 0.00 | 40 | 1019.2 |
| 20260503181803 | 56 | 21 | 8.0 | 14.0 | 0.00 | 0.00 | 0.00 | 40 | 1019.1 |
| 20260503175804 | 56 | 20 | 5.0 | 14.0 | 0.00 | 0.00 | 0.00 | 41 | 1019.0 |
| 20260503173804 | 57 | 113 | 9.0 | 16.0 | 0.00 | 0.00 | 0.00 | 40 | 1018.9 |
| 20260503171804 | 57 | 352 | 7.0 | 13.0 | 0.00 | 0.00 | 0.00 | 41 | 1018.6 |
| 20260503170804 | 57 | 348 | 6.0 | 13.0 | 0.00 | 0.00 | 0.00 | 41 | 1018.5 |
| 20260503110804 | 59 | 54 | 2.0 | 13.0 | 0.00 | 0.00 | 0.00 | 38 | 1018.7 |
| 20260503080804 | 54 | 13 | 2.0 | 6.0 | 0.00 | 0.00 | 0.00 | 55 | 1019.5 |
| 20260503072804 | 53 | 13 | 2.0 | 9.0 | 0.00 | 0.00 | 0.00 | 59 | 1019.7 |
| 20260503071804 | 53 | 13 | 2.0 | 6.0 | 0.00 | 0.00 | 0.00 | 60 | 1019.7 |
| 20260503052804 | 50 | 11 | 0.0 | 2.0 | 0.00 | 0.00 | 0.00 | 67 | 1019.6 |
| 20260503051803 | 49 | 11 | 0.0 | 1.0 | 0.00 | 0.00 | 0.00 | 68 | 1019.5 |
| 20260503050804 | 49 | 11 | 0.0 | 0.0 | 0.00 | 0.00 | 0.00 | 69 | 1019.5 |
| 20260503044803 | 48 | 11 | 0.0 | 2.0 | 0.00 | 0.00 | 0.00 | 69 | 1019.5 |
| 20260503042804 | 49 | 11 | 2.0 | 6.0 | 0.00 | 0.00 | 0.00 | 67 | 1019.5 |
| 20260503041803 | 48 | 11 | 0.0 | 5.0 | 0.00 | 0.00 | 0.00 | 69 | 1019.4 |
| 20260503040803 | 49 | 11 | 2.0 | 7.0 | 0.00 | 0.00 | 0.00 | 66 | 1019.3 |
| 20260503035803 | 48 | 11 | 1.0 | 6.0 | 0.00 | 0.00 | 0.00 | 65 | 1019.1 |
| 20260503033804 | 48 | 13 | 3.0 | 9.0 | 0.00 | 0.00 | 0.00 | 67 | 1018.8 |
| 20260503032804 | 48 | 14 | 2.0 | 5.0 | 0.00 | 0.00 | 0.00 | 67 | 1018.7 |
| 20260503031803 | 48 | 14 | 0.0 | 5.0 | 0.00 | 0.00 | 0.00 | 68 | 1018.8 |
| 20260503030803 | 48 | 14 | 3.0 | 7.0 | 0.00 | 0.00 | 0.00 | 69 | 1018.8 |
| 20260503025803 | 48 | 14 | 5.0 | 7.0 | 0.00 | 0.00 | 0.00 | 69 | 1018.9 |
| 20260503024803 | 48 | 14 | 6.0 | 12.0 | 0.00 | 0.00 | 0.00 | 68 | 1018.9 |
| 20260503023804 | 48 | 12 | 6.0 | 8.0 | 0.00 | 0.00 | 0.00 | 69 | 1018.8 |
| 20260503022804 | 49 | 12 | 1.0 | 3.0 | 0.00 | 0.00 | 0.00 | 68 | 1018.7 |
| 20260503020804 | 48 | 12 | 2.0 | 5.0 | 0.00 | 0.00 | 0.00 | 68 | 1018.6 |
| 20260503015804 | 48 | 12 | 2.0 | 6.0 | 0.00 | 0.00 | 0.00 | 68 | 1018.7 |
| 20260503014804 | 48 | 12 | 2.0 | 5.0 | 0.00 | 0.00 | 0.00 | 69 | 1018.7 |
| 20260503013804 | 48 | 12 | 1.0 | 5.0 | 0.00 | 0.00 | 0.00 | 70 | 1018.8 |
| 20260503011804 | 48 | 12 | 4.0 | 6.0 | 0.00 | 0.00 | 0.00 | 70 | 1018.8 |
| 20260503010804 | 48 | 12 | 5.0 | 6.0 | 0.00 | 0.00 | 0.00 | 72 | 1018.9 |
| 20260503003804 | 48 | 12 | 1.0 | 2.0 | 0.00 | 0.00 | 0.00 | 71 | 1018.7 |